[[{"header":{"parameterUnit":"m.s-1","parameterCategory":1,"la1":30.2991,"la2":30.254,"lo1":-89.0895,"lo2":-89.0444,"dy":0.0017,"dx":0.0017,"nx":28,"ny":28,"refTime":"2024-06-05T03:00:00:Z","depth":0,"parameterNumber":2,"parameterNumberName":"U-component_of_WINDS"},"data":[0,0,0,0,0,0,0,0,0,0,0,0,0,0,0,0,0,0,0,0,0,0,0,0,0,0,0,0,0,0,0,0,0,0,0,0,0,0,0,0,0,0,0,0,0,0,0,0,0,0,0,0,0,0,0,0,0,0,1.7746,1.7745,0,1.7662,1.7661,1.766,1.7562,1.7561,1.7559,1.7558,1.7473,1.7472,1.7471,0,0,0,0,0,0,0,0,0,0,0,0,0,1.7821,1.782,1.7746,1.7745,1.7744,1.7663,1.7661,1.766,1.7563,1.7561,1.7559,1.7557,1.7473,1.7472,1.7471,0,0,0,0,0,0,0,0,0,0,0,0,0,1.7768,1.782,1.7746,1.7686,1.7679,1.7663,1.7661,1.766,1.7563,1.7561,1.7559,1.7556,1.7473,1.7472,1.7471,1.7507,0,0,1.7467,1.7466,0,0,0,0,0,0,0,0,1.7771,1.7766,1.7696,1.769,1.7683,1.762,1.7656,1.7609,1.7564,1.7607,1.7558,1.7555,1.7524,1.7518,1.7507,1.7503,1.75,1.7467,1.7466,1.7465,1.7465,0,0,0,0,0,0,0,1.7775,1.7769,1.7713,1.7695,1.7687,1.7662,1.7652,1.7647,1.7579,1.7603,1.7596,1.7587,1.752,1.7509,1.7505,1.7498,1.7467,1.7465,1.7465,1.7464,1.7518,1.752,0,0,0,0,0,0,1.7788,1.7772,1.7716,1.7711,1.7722,1.7663,1.7652,1.7643,1.7579,1.7567,1.7589,1.7583,1.7512,1.7506,1.7501,1.7537,1.7465,1.7464,1.7463,1.7515,1.7518,1.7521,0,0,0,0,0,0,1.779,1.7784,1.7719,1.7739,1.7729,1.7664,1.7655,1.7642,1.7631,1.7568,1.7556,1.7591,1.751,1.7503,1.7506,1.7533,1.7463,1.7462,1.7513,1.7516,1.7519,1.7612,0,0,0,0,0,0,1.7793,1.7785,1.7799,1.774,1.7729,1.7726,1.7657,1.7642,1.7629,1.762,1.7566,1.7555,1.7508,1.7508,1.7505,1.753,1.7461,1.751,1.7514,1.7518,1.7607,1.7619,1.7629,0,0,0,0,0,1.7796,1.7829,1.78,1.7794,1.7744,1.7728,1.7721,1.7665,1.7632,1.7644,1.7604,1.7557,1.7532,1.751,1.7504,1.753,1.7508,1.7513,1.7518,1.7602,1.7616,1.7628,0,0,0,0,0,0,1.7892,1.782,1.7787,1.7803,1.7772,1.7711,1.7725,1.7683,1.7661,1.7654,1.7587,1.7575,1.7586,1.7558,1.7535,1.7561,1.7513,1.7517,1.7578,1.7591,1.7602,1.7608,1.746,0,0,0,0,0,1.7916,1.7908,1.7846,1.7865,1.7851,1.7791,1.7782,1.7742,1.7708,1.7694,1.7654,1.7622,1.7606,1.7598,1.758,1.7603,1.7588,1.7618,1.7629,1.7638,1.7642,1.7649,1.7661,1.7537,1.7537,1.7537,0,0,1.7963,1.7923,1.7922,1.7884,1.7855,1.7848,1.7781,1.7777,1.7771,1.7694,1.7693,1.7663,1.7623,1.7635,1.7638,1.7612,1.7673,1.7645,1.7653,1.7651,1.7656,1.7668,1.7678,1.754,1.754,1.7539,0,0,1.8046,1.8016,1.8027,1.8,1.7958,1.7917,1.792,1.7866,1.7842,1.784,1.7781,1.7773,1.7749,1.7722,1.7705,1.7777,1.7732,1.7774,1.7831,1.7839,1.7849,1.7857,1.788,1.789,1.7778,1.7778,1.7778,0,1.811,1.8098,1.8039,1.8038,1.8022,1.7951,1.7962,1.7939,1.7893,1.7883,1.7855,1.7821,1.779,1.7793,1.7811,1.7801,1.7801,1.7779,1.7852,1.786,1.7866,1.7888,1.7897,1.7783,1.7783,1.7782,1.7782,0,1.8178,1.817,1.8185,1.8142,1.8127,1.8133,1.8074,1.8067,1.8029,1.7991,1.7989,1.7949,1.7921,1.7919,1.7882,1.7917,1.7902,1.7865,1.7814,1.7884,1.7903,1.7911,1.7791,1.7789,1.7787,1.7786,0,0,1.8318,1.8242,1.8248,1.8227,1.8174,1.8167,1.8169,1.8141,1.8135,1.8106,1.8105,1.8085,1.8049,1.803,1.7989,1.7997,1.8053,1.7957,1.7955,1.7974,1.8087,1.8114,1.8125,1.8024,1.8025,1.8027,1.8089,0,1.839,1.8388,1.8334,1.8347,1.8338,1.8271,1.8272,1.824,1.8205,1.8192,1.8153,1.814,1.8094,1.8082,1.8087,1.8046,1.8075,1.8041,1.802,1.802,1.803,1.8135,1.8164,1.8225,1.8097,1.8098,1.8099,0,1.8472,1.8447,1.8459,1.8404,1.8399,1.8401,1.837,1.8359,1.8321,1.8295,1.8274,1.8227,1.8224,1.8178,1.8172,1.815,1.8139,1.8117,1.8118,1.8113,1.8062,1.813,1.8243,1.8252,1.811,1.8109,1.8108,0,1.857,1.854,1.8542,1.8526,1.8464,1.8466,1.844,1.84,1.8386,1.836,1.835,1.8324,1.8309,1.829,1.8237,1.8209,1.8236,1.8186,1.8213,1.8214,1.822,1.822,1.8331,1.8217,1.8217,1.8217,1.8216,0,1.8654,1.8663,1.8585,1.8586,1.8594,1.8533,1.8542,1.851,1.8475,1.8468,1.8409,1.8404,1.8336,1.8322,1.8282,1.8281,1.8276,1.8253,1.8242,1.8257,1.826,1.8247,1.8241,1.8219,1.8218,1.8218,1.8218,0,1.8763,1.8712,1.8709,1.865,1.8636,1.8644,1.8593,1.8591,1.8553,1.8545,1.854,1.8479,1.8461,1.8407,1.8375,1.8347,1.8358,1.8338,1.8371,1.8363,1.8391,1.8389,1.8497,1.8507,1.8389,1.839,1.8391,0,1.8819,1.8824,1.8766,1.8757,1.8733,1.872,1.8705,1.8646,1.8633,1.8589,1.8592,1.8569,1.8547,1.852,1.8473,1.8448,1.8425,1.8465,1.8421,1.8436,1.8423,1.8422,1.8421,1.8474,1.8476,1.8477,1.8478,0,1.8922,1.8896,1.8877,1.8849,1.8833,1.8809,1.878,1.8777,1.871,1.8698,1.8678,1.8661,1.8628,1.8605,1.8572,1.8544,1.85,1.8493,1.8497,1.8511,1.8529,1.8517,1.8394,1.849,1.8489,1.8488,1.8487,1.8487,1.9004,1.9005,1.8963,1.8944,1.8917,1.8892,1.8886,1.8847,1.883,1.8798,1.8764,1.8747,1.8708,1.8659,1.8635,1.862,1.8596,1.8604,1.8605,1.8607,1.8613,1.8533,1.8614,1.8614,1.8614,1.8613,1.8613,0,1.9102,1.9072,1.9055,1.9017,1.9001,1.8962,1.8928,1.8918,1.8904,1.8871,1.885,1.8826,1.8804,1.8755,1.8727,1.8725,1.8704,1.872,1.8718,1.8712,1.8637,1.8635,1.8737,1.8737,1.8737,1.8737,1.8737,1.8737,1.915,1.9149,1.9118,1.9102,1.9072,1.9055,1.9039,1.9015,1.8988,1.8965,1.8945,1.8914,1.8874,1.8843,1.882,1.8806,1.8797,1.882,1.8799,1.8729,1.8718,1.8706,1.8704,1.8819,1.8819,1.8875,1.8875,1.8876]},{"header":{"parameterUnit":"m.s-1","parameterCategory":1,"la1":30.2991,"la2":30.254,"lo1":-89.0895,"lo2":-89.0444,"dy":0.0017,"dx":0.0017,"nx":28,"ny":28,"refTime":"2024-06-05T03:00:00:Z","depth":0,"parameterNumber":3,"parameterNumberName":"V-component_of_WINDS"},"data":[0,0,0,0,0,0,0,0,0,0,0,0,0,0,0,0,0,0,0,0,0,0,0,0,0,0,0,0,0,0,0,0,0,0,0,0,0,0,0,0,0,0,0,0,0,0,0,0,0,0,0,0,0,0,0,0,0,0,4.43,4.43,0,4.4319,4.4319,4.4319,4.4229,4.4227,4.4224,4.4222,4.4239,4.4241,4.4244,0,0,0,0,0,0,0,0,0,0,0,0,0,4.418,4.4183,4.43,4.43,4.43,4.4319,4.4319,4.4319,4.423,4.4227,4.4224,4.4221,4.4238,4.4241,4.4244,0,0,0,0,0,0,0,0,0,0,0,0,0,4.4219,4.4184,4.4299,4.4258,4.4254,4.4319,4.4319,4.432,4.4231,4.4227,4.4223,4.4219,4.4236,4.4241,4.4245,4.435,0,0,4.4258,4.426,0,0,0,0,0,0,0,0,4.4217,4.4224,4.4264,4.4261,4.4257,4.4268,4.4283,4.433,4.4232,4.4239,4.4222,4.4217,4.4251,4.4254,4.4266,4.4351,4.4351,4.4258,4.4261,4.4263,4.4264,0,0,0,0,0,0,0,4.4214,4.4222,4.4307,4.4264,4.426,4.4236,4.4238,4.4292,4.4267,4.4238,4.4232,4.4236,4.4249,4.4262,4.4266,4.4352,4.4258,4.4262,4.4265,4.4267,4.4521,4.4525,0,0,0,0,0,0,4.4218,4.4221,4.4306,4.4308,4.4227,4.4242,4.4243,4.4268,4.4266,4.4262,4.4239,4.4231,4.4257,4.4261,4.4266,4.4388,4.4263,4.4267,4.4269,4.4517,4.4522,4.4527,0,0,0,0,0,0,4.4216,4.4226,4.4306,4.4262,4.4271,4.4248,4.4277,4.4271,4.4284,4.4267,4.4261,4.4258,4.4254,4.426,4.433,4.4387,4.4269,4.4273,4.4512,4.4519,4.4525,4.4633,0,0,0,0,0,0,4.4213,4.4226,4.4267,4.4264,4.4273,4.437,4.428,4.4274,4.4292,4.4283,4.4283,4.4279,4.4251,4.4324,4.4334,4.4391,4.4276,4.4507,4.4515,4.4523,4.4624,4.4643,4.4658,0,0,0,0,0,4.4209,4.4296,4.427,4.428,4.4324,4.4374,4.4379,4.4346,4.4297,4.4337,4.4326,4.4279,4.438,4.4332,4.4342,4.4402,4.4503,4.4513,4.4522,4.4617,4.4639,4.4658,0,0,0,0,0,0,4.4306,4.4295,4.4265,4.4355,4.4366,4.4359,4.4408,4.4371,4.4395,4.4385,4.4342,4.4343,4.442,4.4417,4.4364,4.4502,4.4433,4.4445,4.4501,4.4522,4.4538,4.4537,4.428,0,0,0,0,0,4.4338,4.4381,4.4368,4.4449,4.4456,4.4431,4.4452,4.4426,4.4435,4.4439,4.4432,4.4442,4.4475,4.4499,4.4529,4.4624,4.4622,4.467,4.4686,4.47,4.4711,4.476,4.4781,4.4558,4.4558,4.4557,0,0,4.4404,4.4404,4.4433,4.4468,4.4474,4.4517,4.4436,4.4486,4.4517,4.4446,4.4511,4.4507,4.4515,4.4598,4.4633,4.4598,4.4772,4.4712,4.4724,4.4727,4.4772,4.4793,4.4812,4.4564,4.4563,4.4562,0,0,4.4547,4.4552,4.4618,4.4626,4.4635,4.4618,4.4634,4.4632,4.4627,4.4692,4.4639,4.4675,4.4734,4.4742,4.4754,4.4899,4.4856,4.4909,4.4997,4.5045,4.5063,4.5078,4.5129,4.5148,4.492,4.4921,4.4921,0,4.4628,4.4693,4.4657,4.4711,4.4727,4.4665,4.4731,4.474,4.4758,4.477,4.4731,4.4803,4.4804,4.4887,4.4922,4.4934,4.495,4.4909,4.5063,4.5078,4.5092,4.514,4.516,4.4927,4.4926,4.4925,4.4925,0,4.4791,4.4837,4.4889,4.491,4.4932,4.4992,4.4963,4.499,4.4961,4.4948,4.5014,4.5014,4.5042,4.506,4.5032,4.5139,4.5116,4.5071,4.5,4.512,4.5165,4.5183,4.4936,4.4934,4.4932,4.493,0,0,4.4996,4.4996,4.5016,4.5023,4.5029,4.5063,4.5119,4.5148,4.5171,4.5185,4.523,4.5282,4.5239,4.5253,4.5225,4.5268,4.5382,4.5217,4.5216,4.5247,4.5498,4.5532,4.5554,4.5354,4.5357,4.536,4.5497,0,4.5136,4.5233,4.5202,4.5299,4.534,4.5282,4.533,4.5338,4.5327,4.5359,4.5346,4.5383,4.5325,4.5332,4.5372,4.536,4.5431,4.5349,4.5394,4.5396,4.5394,4.5577,4.5613,4.5743,4.5514,4.5517,4.5519,0,4.5312,4.5334,4.5436,4.5434,4.545,4.5494,4.5517,4.5549,4.5556,4.5545,4.556,4.5523,4.5577,4.5506,4.5578,4.5523,4.554,4.5536,4.554,4.5543,4.5465,4.5584,4.5783,4.5803,4.5546,4.5544,4.5542,0,4.545,4.5505,4.5573,4.5582,4.5581,4.5614,4.5615,4.5618,4.5637,4.5657,4.5668,4.5694,4.5708,4.5728,4.5699,4.565,4.5775,4.5702,4.5766,4.5767,4.5795,4.5794,4.5999,4.5807,4.5806,4.5806,4.5806,0,4.5609,4.5673,4.5635,4.5677,4.5747,4.571,4.578,4.5774,4.5778,4.5816,4.5767,4.5804,4.5763,4.5796,4.5774,4.5836,4.5843,4.5835,4.5828,4.5839,4.584,4.5849,4.5839,4.5811,4.581,4.5809,4.5808,0,4.5775,4.5753,4.5823,4.5816,4.5816,4.5868,4.5862,4.5899,4.5884,4.5934,4.5943,4.592,4.5956,4.5929,4.5965,4.5949,4.6032,4.6013,4.603,4.6025,4.609,4.6084,4.6309,4.6336,4.6126,4.6128,4.613,0,4.5878,4.5926,4.5925,4.5948,4.5952,4.599,4.6008,4.5973,4.5995,4.6006,4.6042,4.6074,4.6098,4.6158,4.6144,4.617,4.6151,4.6228,4.6155,4.6164,4.6151,4.6149,4.6153,4.6243,4.6245,4.6247,4.6249,0,4.6062,4.6049,4.6078,4.6104,4.6129,4.6147,4.6161,4.6182,4.6146,4.6173,4.621,4.6228,4.6265,4.6297,4.6318,4.6318,4.6277,4.6272,4.6288,4.63,4.6308,4.6304,4.607,4.6267,4.6265,4.6264,4.6263,4.6262,4.6199,4.6239,4.6245,4.6279,4.6286,4.6301,4.6336,4.6325,4.6355,4.6383,4.636,4.6404,4.6408,4.6433,4.6438,4.6471,4.6439,4.6462,4.6468,4.6475,4.6484,4.6303,4.6474,4.6474,4.6473,4.6473,4.6472,0,4.6381,4.6381,4.6413,4.6435,4.6462,4.6422,4.6436,4.646,4.65,4.6508,4.6533,4.6574,4.6605,4.6593,4.662,4.6649,4.6631,4.6657,4.6654,4.6654,4.6511,4.6494,4.6671,4.6671,4.6671,4.6671,4.6671,4.6671,4.6478,4.6543,4.653,4.6597,4.6597,4.664,4.6651,4.6664,4.667,4.6719,4.6745,4.6737,4.6736,4.6763,4.6789,4.6784,4.6796,4.6829,4.6818,4.6684,4.6665,4.6646,4.663,4.6832,4.6832,4.6959,4.696,4.6961]}]]